Simultaneous Nadir Overpasses (SNOs) Predictions

Prediction of SNOs between AQUA and METOP-B Satellite Orbit:

Table of predicted SNOs for the next 14.0 days since TLE Epoch: 1/9/2021
Index Date (AQUA) Time (AQUA) Lat,Lon (AQUA) SZA (AQUA ) Date (METOP-B) Time (METOP-B) Lat,Lon (METOP-B) SZA (METOP-B ) Distance(km) Time Diff (sec)
1 01/10/2021 19:50:16 -73.71, 56.87 84.43 01/10/2021 19:49:02 -73.65, 56.58 84.47 11.41 74
2 01/10/2021 20:39:45 73.79,-135.68 95.66 01/10/2021 20:39:39 73.79,-135.74 95.66 1.95 6
3 01/10/2021 21:29:12 -73.86, 31.81 84.28 01/10/2021 21:30:19 -73.87, 31.79 84.27 1.67 67
4 01/13/2021 15:24:32 -73.77, 123.17 84.82 01/13/2021 15:23:24 -73.75, 123.23 84.83 3.21 68
5 01/13/2021 16:14:00 73.81, -69.28 95.22 01/13/2021 16:14:03 73.79, -69.34 95.21 3.18 3
6 01/13/2021 17:03:28 -73.98, 98.00 84.61 01/13/2021 17:04:40 -73.98, 98.44 84.63 13.58 72
7 01/16/2021 10:58:45 -73.74,-170.32 85.36 01/16/2021 10:57:47 -73.75,-170.36 85.34 2.08 58
8 01/16/2021 11:48:14 73.84, -2.89 94.74 01/16/2021 11:48:25 73.84, -2.83 94.74 1.98 11
9 01/16/2021 12:37:49 -74.30, 163.68 84.77 01/16/2021 12:38:57 -74.32, 165.71 84.83 60.89 68
10 01/19/2021 06:33:00 -73.76,-103.93 85.90 01/19/2021 06:32:11 -73.75,-103.96 85.90 1.42 49
11 01/19/2021 07:22:28 73.82, 63.59 94.16 01/19/2021 07:22:49 73.83, 63.56 94.17 1.91 21
12 01/22/2021 02:07:15 -73.79, -37.55 86.48 01/22/2021 02:06:34 -73.80, -37.44 86.47 3.65 41
13 01/22/2021 02:56:43 73.85, 129.96 93.58 01/22/2021 02:57:13 73.82, 129.95 93.55 3.29 30



Historial Predications of SNOs between AQUA and METOP-B
